Change the Weather History Date:

Monday, July 22, 2013

  Actual Average Record
Temperature  
Mean Temperature 63 °F 56 °F  
Max Temperature 79 °F 64 °F 79 °F (2013)
Min Temperature 46 °F 48 °F 38 °F (1965)
Degree Days  
Heating Degree Days 2    
Month to date heating degree days 212 209  
Since 1 June heating degree days 494 616  
Since 1 July heating degree days 212 209  
Cooling Degree Days 0    
Month to date cooling degree days 0  
Year to date cooling degree days 0  
Since 1 June cooling degree days 0  
Growing Degree Days 12 (Base 50)    
Moisture  
Dew Point 53 °F    
Average Humidity 0    
Maximum Humidity 0    
Minimum Humidity 0    
Precipitation  
Precipitation 0.00 in 0.08 in 0.78 in (1986)
Month to date precipitation 1.30 1.54  
Year to date precipitation 8.71 7.89  
Snow  
Snow 0.00 in 0.00 in 0.00 in (2014)
Month to date snowfall 0.0 0.0  
Since 1 June snowfall 0.0 0.0  
Since 1 July snowfall 0.0 0.0  
Snow Depth 0.00 in    
Sea Level Pressure  
Sea Level Pressure 30.16 in    
Wind  
Wind Speed 9 mph (NW)    
Max Wind Speed 17 mph    
Max Gust Speed 24 mph    
Visibility 10 miles    
Events      
T = Trace of Precipitation, MM = Missing Value Source: NWS Daily Summary

Daily Weather History Graph

Daily Weather History Graph

Search for Another Location

Airport or City:

Trip Planner

Search our weather history database for the weather conditions in past years. The results will help you decide how hot, cold, wet, or windy it might be!

Date:

Astronomy

Jul. 22, 2013 Rise Set
Actual Time 5:55 AM AKDT 11:08 PM AKDT
Civil Twilight 4:53 AM AKDT 12:10 AM AKDT
Nautical Twilight 3:05 AM AKDT 2:00 AM AKDT
Astronomical Twilight Sun does not rise Sun does not rise
Moon 10:32 PM AKDT (7/22) 6:26 AM AKDT (7/22)
Length of Visible Light 19h 16m
Length of Day
17h 12m
Full, 100% of the Moon is Illuminated
Jul 22
Full
Jul 29
Last Quarter
Aug 6
New
Aug 14
First Quarter
Aug 20
Full

Hourly Weather History & Observations

Time (AKDT) Temp. Dew Point Humidity Pressure Visibility Wind Dir Wind Speed Gust Speed Precip Events Conditions
12:54 AM 59.0 °F 50.0 °F 72% 30.16 in 10.0 mi North 6.9 mph - N/A   Scattered Clouds
1:54 AM 54.0 °F 52.0 °F 93% 30.17 in 10.0 mi West 5.8 mph - N/A   Scattered Clouds
2:54 AM 55.0 °F 52.0 °F 89% 30.17 in 10.0 mi NW 6.9 mph - N/A   Scattered Clouds
3:54 AM 53.1 °F 50.0 °F 89% 30.17 in 10.0 mi NW 3.5 mph - N/A   Mostly Cloudy
4:54 AM 51.1 °F 48.9 °F 92% 30.16 in 10.0 mi WSW 3.5 mph - N/A   Mostly Cloudy
5:54 AM 46.9 °F 46.0 °F 97% 30.17 in 10.0 mi Calm Calm - N/A   Mostly Cloudy
6:54 AM 52.0 °F 50.0 °F 93% 30.17 in 10.0 mi Calm Calm - N/A   Scattered Clouds
7:54 AM 57.0 °F 52.0 °F 83% 30.18 in 10.0 mi Calm Calm - N/A   Scattered Clouds
8:54 AM 63.0 °F 52.0 °F 67% 30.17 in 10.0 mi North 9.2 mph - N/A   Scattered Clouds
9:54 AM 66.0 °F 54.0 °F 65% 30.17 in 10.0 mi North 8.1 mph - N/A   Scattered Clouds
10:54 AM 69.1 °F 54.0 °F 58% 30.18 in 10.0 mi North 11.5 mph - N/A   Scattered Clouds
11:54 AM 71.1 °F 54.0 °F 55% 30.17 in 10.0 mi NNW 10.4 mph - N/A   Scattered Clouds
12:54 PM 73.9 °F 52.0 °F 46% 30.17 in 10.0 mi North 11.5 mph - N/A   Scattered Clouds
1:54 PM 75.9 °F 53.1 °F 45% 30.16 in 10.0 mi NNW 12.7 mph 20.7 mph N/A   Scattered Clouds
2:54 PM 75.0 °F 53.1 °F 46% 30.16 in 10.0 mi NNW 10.4 mph 21.9 mph N/A   Mostly Cloudy
3:54 PM 77.0 °F 53.1 °F 43% 30.16 in 10.0 mi NNW 13.8 mph 21.9 mph N/A   Scattered Clouds
4:54 PM 78.1 °F 54.0 °F 43% 30.15 in 10.0 mi NW 12.7 mph 18.4 mph N/A   Mostly Cloudy
5:54 PM 78.1 °F 53.1 °F 42% 30.15 in 10.0 mi WNW 9.2 mph - N/A   Mostly Cloudy
6:54 PM 77.0 °F 55.0 °F 47% 30.15 in 10.0 mi West 13.8 mph - N/A   Scattered Clouds
7:54 PM 77.0 °F 55.0 °F 47% 30.15 in 10.0 mi West 11.5 mph - N/A   Scattered Clouds
8:54 PM 73.0 °F 57.0 °F 57% 30.15 in 10.0 mi West 12.7 mph - N/A   Scattered Clouds
9:54 PM 69.1 °F 57.0 °F 65% 30.16 in 10.0 mi West 12.7 mph - N/A   Scattered Clouds
10:54 PM 64.0 °F 57.0 °F 78% 30.17 in 10.0 mi West 12.7 mph - N/A   Scattered Clouds
11:54 PM 61.0 °F 57.9 °F 90% 30.18 in 10.0 mi West 8.1 mph - N/A   Scattered Clouds